Regional Weather Roundup
Issued by NWS Upton, NY

Current Version | Previous Version | Text Only | Print | Product List | Glossary On
Versions: 1 2 3 4 5 6 7 8 9 10 11 12 13 14 15 16 17 18 19 20 21 22 23 24 25 26 27 28 29 30 31 32 33 34 35 36 37 38 39 40 41 42 43 44 45 46 47 48 49 50
000
ASUS41 KOKX 202005
RWROKX

REGIONAL WEATHER ROUNDUP
NATIONAL WEATHER SERVICE NEW YORK NY
300 PM EST SAT DEC 20 2014

NOTE: "FAIR" INDICATES FEW OR NO CLOUDS BELOW 12,000 FEET WITH NO
SIGNIFICANT WEATHER AND/OR OBSTRUCTIONS TO VISIBILITY.

NYZ071-072-176-178-NJZ106-104-202100-
NEW YORK CITY METRO AREA


CITY           SKY/WX    TMP DP  RH WIND       PRES   REMARKS
CENTRAL PARK   CLOUDY    33  19  56 N6        30.27S WCI  28
LAGUARDIA APRT CLOUDY    33  20  58 N3        30.26S
KENNEDY INTL   CLOUDY    33  20  58 N3        30.28R
NEWARK/LIBERTY CLOUDY    33  21  61 W3        30.27S
BRNX BOT. GARD   N/A    N/A N/A N/A NW5       30.25F
TETERBORO      CLOUDY    34  19  54 N3        30.25S
$$

NYZ177-179-078>081-202100-
LONG ISLAND NEW YORK

CITY           SKY/WX    TMP DP  RH WIND       PRES   REMARKS
FARMINGDALE    CLOUDY    32  21  64 W5        30.26S WCI  27
ISLIP          CLOUDY    33  22  63 NW7       30.24S WCI  27
SHIRLEY        CLOUDY    33  23  66 N5        30.26S WCI  29
WESTHAMPTON    CLOUDY    33  24  69 N5        30.27R WCI  29
MONTAUK POINT    N/A     36  27  69 NW6       30.25R WCI  31
$$

NYZ052-065-067-202100-
HUDSON VALLEY

CITY           SKY/WX    TMP DP  RH WIND       PRES   REMARKS
WHITE PLAINS   CLOUDY    31  19  61 N6        30.23R WCI  25
NEWBURGH       NOT AVBL
MONTGOMERY     CLOUDY    31  20  63 NE6       30.24S WCI  25
POUGHKEEPSIE   CLOUDY    31  19  61 N5        30.26F WCI  26
ALBANY         CLOUDY    30  18  60 N5        30.29S WCI  25
$$

NJZ001-105-106-008-010-013-015-019>022-104-202100-
NEW JERSEY

CITY           SKY/WX    TMP DP  RH WIND       PRES   REMARKS
NEWARK/LIBERTY CLOUDY    33  21  61 W3        30.27S
TETERBORO      CLOUDY    34  19  54 N3        30.25S
CALDWELL       CLOUDY    31  19  61 CALM      30.26S
MORRISTOWN     CLOUDY    32  21  64 CALM      30.26S
SOMERVILLE     CLOUDY    33  20  58 N6        30.25S WCI  28
SUSSEX         CLOUDY    30  20  66 CALM      30.24S
ANDOVER          N/A     29  20  69 VRB3      30.24S
TRENTON        CLOUDY    33  20  58 VRB3      30.25F
MILLVILLE      CLOUDY    35  23  61 N5        30.26S WCI  31
ATLANTIC CITY  CLOUDY    35  22  58 N7        30.25S WCI  29
WRIGHTSTOWN    CLOUDY    33  21  62 VRB2      30.24S
TOMS RIVER     CLOUDY    34  21  60 NW6       30.26S WCI  29
BELMAR         CLOUDY    34  19  55 NW6       30.25S WCI  29
$$

PAZ047>061-062-071-202100-
EASTERN PENNSYLVANIA

CITY           SKY/WX    TMP DP  RH WIND       PRES   REMARKS
PHILADELPHIA   CLOUDY    35  21  56 N3        30.27F
ALLENTOWN      CLOUDY    35  21  56 CALM      30.25S
SCRANTON       CLOUDY    31  20  63 NW5       30.21R WCI  26
$$

CTZ002-004>006-009-010-012-RIZ004-006-007-MAZ004-011-015-202100-
SOUTHERN NEW ENGLAND
 IN CT

CITY           SKY/WX    TMP DP  RH WIND       PRES   REMARKS
BRADLEY INTL   FLURRIES  31  19  61 N6        30.25F WCI  25
HARTFORD       CLOUDY    30  20  66 VRB5      30.27F WCI  25
DANBURY        CLOUDY    30  18  60 N6        30.25R WCI  24
WTRBRY/OXFORD  CLOUDY    28  18  64 NE6       30.23F WCI  22
BRIDGEPORT     CLOUDY    34  23  64 N7        30.26R WCI  28
MERIDEN        CLOUDY    30  21  69 N5        30.26F WCI  25
NEW HAVEN      CLOUDY    34  22  61 N8        30.26R WCI  27
CHESTER        CLOUDY    32  25  74 NW5       30.24R WCI  27
GROTON         CLOUDY    33  26  75 N7        30.24F WCI  27
WILLIMANTIC    CLOUDY    35  23  61 N5        30.24F WCI  31

 IN RI

CITY           SKY/WX    TMP DP  RH WIND       PRES   REMARKS
PROVIDENCE     CLOUDY    35  24  64 N7        30.25S WCI  29
BLOCK ISLAND   CLOUDY    36  27  69 N9G16     30.22S WCI  29
WESTERLY       CLOUDY    35  25  66 N5        30.24F WCI  31

 IN MA

CITY           SKY/WX    TMP DP  RH WIND       PRES   REMARKS
BOSTON         CLOUDY    34  25  69 N7        30.27S WCI  28
WORCESTER      CLOUDY    31  20  63 CALM      30.22R
WESTFIELD      CLOUDY    34  19  54 NW3       30.26R
PROVINCETOWN   CLOUDY    39  34  81 NE10      30.24R WCI  32
NANTUCKET      LGT RAIN  41  34  76 NW7       30.22R
$$

ANZ330-335-338-340-345-350-353-355-202100-
COASTAL MARINE OBSERVATIONS


STATION/POSITION TIME  SKY/WX   TEMP    WIND        PRES    VSBY  WAVE
                                AIR SEA DIR/SP/G                  HT/PER
                 (UTC)          (F)     (DEG/KT/KT) (MB)    (MI)  (FT/S)
NY HARB ENTRANCE 2000            33 46  310/ 10/ 12 1025.0          1/ 9
4S FIRE IS       2000               45                N/A           1/11
20S FIRE ISLAND  1900            35 49              1024.8          1/ 3
23SW MTP         2000                                 N/A           2/ 3
HUDSON CANYON    2000            38 54  340/ 12/ 14 1023.1          2/ 4
EXECUTION ROCKS  2000            34 42  330/  4/  8   N/A
WESTERN LI SOUND 2000            33      10/  6/  8   N/A           0
CENTRAL LI SOUND 1900            32 44  350/  6/ 10   N/A           0
EASTERN LI SOUND NOT AVBL
ROBBINS REEF     2000            32        CALM     1023.5
$$


>>>>>>>>>>>>>>>>>>>>>>>>>>>> KEY <<<<<<<<<<<<<<<<<<<<<<<<<<<
>                                                          <
>     SKY/WX - SKY CONDITION/PRESENT WEATHER               <
>     TMP    - TEMPERATURE IN FAHRENHEIT                   <
>     DP     - DEWPOINT IN FAHRENHEIT                      <
>     RH     - RELATIVE HUMIDITY IN PERCENT                <
>     WIND   - DIRECTION AND SPEED IN MPH                  <
>     PRES   - MEAN SEA LEVEL PRESSURE IN INCHES OF HG     <
>     WCI    - WIND CHILL INDEX                            <
>     VSB    - VISIBILITY IN MILES                         <
>     HX     - HEAT INDEX                                  <
>     TC     - TEMPERATURE IN CELSIUS                      <
>     VRB    - VARIABLE WIND DIRECTION                     <
>                                                          <
>>>>>>>>>>>>>>>>>>>>>>>>>>>> KEY <<<<<<<<<<<<<<<<<<<<<<<<<<<




USA.gov is the U.S. government's official web portal to all federal, state and local government web resources and services.